#timestamp,LO_Frequency,Hit 
1497376815.2,286046979.1,N
1497376835.9,286046979.4,N
1497376855.7,286046979.8,N
1497376875.6,286046977.4,N
1497376895.4,286046980.1,N
1497376915.2,286046978.8,N
1497376935.1,286046980.4,N
1497376936.0,286046980.4,N
1497376955.8,286046977.4,N
1497376975.7,286046979.1,N
1497376995.5,286046979.5,N
1497377015.3,286046979.2,N
1497377035.2,286046979.2,N
1497377055.0,286046979.7,N
1497377055.9,286046979.7,N
1497377075.7,286046979.9,N
1497377095.6,286046977.7,N
1497377115.4,286046977.8,N
1497377135.3,286046977.8,N
1497377155.1,286046977.5,N
1497377156.0,286046977.5,N
1497377175.8,286046977.3,N
1497377195.7,286046977.3,N
1497377215.5,286046977.8,N
1497377235.3,286046977.4,N
1497377255.2,286046979.9,N
1497377275.0,286046977.7,N
1497377275.9,286046977.7,N
1497377295.8,286046977.4,N
1497377315.6,286046980.2,N
1497377335.4,286046977.6,N
1497377355.3,286046978.2,N
1497377375.1,286046978.3,N
1497377395.8,286046977.9,N
1497377415.7,286046978.5,N
1497377435.5,286046977.5,N
1497377455.4,286046977.5,N
1497377475.2,286046978.1,N
1497377495.0,286046978.2,N
1497377495.9,286046978.2,N
1497377515.8,286046978.2,N
1497377535.6,286046978.6,N
1497377555.4,286046978.5,N
1497377575.3,286046978.5,N
1497377595.1,286046977.8,N
1497377615.9,286046977.7,N
1497377635.7,286046978.0,N
1497377655.5,286046977.6,N
1497377675.4,286046978.3,N
1497377695.2,286046977.9,N
1497377715.0,286046977.5,N
1497377716.0,286046977.5,N
1497377735.8,286046977.9,N
1497377755.6,286046977.6,N
1497377775.5,286046977.5,N
1497377795.3,286046977.8,N
1497377815.1,286046977.3,N
1497377835.9,286046977.4,N
1497377855.7,286046978.2,N
1497377875.5,286046980.2,N
1497377895.4,286046980.0,N
1497377915.2,286046977.8,N
1497377935.1,286046977.7,N
1497377936.0,286046977.7,N
1497377955.8,286046980.2,N
1497377975.6,286046980.4,N
1497377995.5,286046977.9,N
1497378015.3,286046978.0,N
1497378035.1,286046977.9,N
1497378055.9,286046978.6,N
1497378075.7,286046977.6,N
1497378095.6,286046977.7,N
1497378115.4,286046977.8,N
1497378135.2,286046978.1,N
1497378155.1,286046977.3,N
1497378156.0,286046977.3,N
1497378175.8,286046980.4,N
1497378195.6,286046980.0,N
1497378245.5,286046977.8,Y
1497378255.4,286046989.8,N
1497378275.3,286047000.0,N
1497378295.1,286047001.2,N
1497378315.8,286047000.4,N
1497378335.7,286047002.2,N
1497378355.5,286047000.0,N
1497378375.4,286047000.8,N
1497378395.2,286047001.0,N
1497378415.0,286046999.9,N
1497378415.9,286046999.9,N
1497378435.8,286047000.1,N
1497378455.6,286047000.3,N
1497378475.4,286047002.0,N
1497378495.3,286047002.7,N
1497378515.1,286047000.0,N
1497378535.9,286047002.8,N
1497378555.7,286047002.7,N
1497378575.5,286047002.4,N
1497378595.4,286047001.9,N
1497378615.2,286047002.4,N
1497378635.0,286047002.6,N
1497378635.9,286047002.6,N
1497378655.8,286047000.2,N
1497378675.6,286047002.6,N
1497378695.5,286047002.4,N
1497378715.3,286047002.6,N
1497378735.1,286047002.3,N
1497378755.9,286047001.5,N
1497378775.7,286047002.7,N
1497378795.5,286047002.5,N
1497378815.4,286047002.6,N
1497378835.2,286047002.6,N
1497378855.0,286047002.0,N
1497378856.0,286047002.0,N
1497378875.8,286047002.1,N
1497378895.6,286047002.2,N
1497378915.5,286047002.7,N
1497378935.3,286047002.8,N
1497378955.1,286047002.8,N
1497378975.9,286047002.7,N
1497378995.7,286047002.0,N
1497379015.5,286047002.7,N
1497379035.4,286047002.3,N
1497379055.2,286047001.6,N
1497379075.1,286047002.1,N
1497379076.0,286047002.1,N
1497379095.8,286047001.3,N
1497379115.6,286047004.3,N
1497379135.5,286047003.9,N
1497379155.3,286047001.7,N
1497379175.1,286047002.2,N
1497379195.9,286047001.8,N
1497379215.7,286047001.5,N
1497379235.6,286047004.4,N
1497379255.4,286047001.6,N
1497379275.2,286047001.5,N
1497379295.1,286047002.2,N
1497379296.0,286047002.2,N
1497379315.8,286047001.9,N
1497379335.6,286047004.0,N
1497379355.5,286047001.7,N
1497379375.3,286047001.3,N
1497379395.2,286047004.4,N
1497379415.9,286047001.4,N
1497379435.7,286047002.0,N
1497379455.6,286047001.9,N
1497379475.4,286047004.3,N
1497379495.3,286047001.6,N
1497379515.1,286047002.4,N
1497379516.0,286047002.4,N
1497379535.8,286047001.4,N
1497379555.7,286047001.4,N
1497379575.5,286047001.9,N
1497379595.3,286047002.6,N
1497379615.2,286047002.0,N
1497379635.0,286047002.1,N
1497379635.9,286047002.1,N
1497379655.8,286047002.2,N
1497379675.6,286047002.1,N
1497379695.4,286047002.2,N
1497379715.3,286047001.6,N
1497379735.1,286047001.6,N
1497379755.9,286047002.5,N
1497379775.7,286047002.2,N
1497379795.5,286047002.2,N
1497379815.4,286047002.4,N
1497379835.2,286047001.8,N
1497379855.0,286047001.5,N
1497379855.9,286047001.5,N
1497379875.8,286047001.7,N
1497379895.6,286047001.6,N
1497379915.5,286047001.8,N
1497379935.3,286047001.7,N
1497379955.1,286047004.3,N
1497379975.9,286047004.3,N
1497379995.7,286047004.1,N
1497380015.5,286047001.5,N
1497380035.4,286047004.4,N
1497380055.2,286047001.3,N
1497380075.1,286047002.5,N
1497380076.0,286047002.5,N
1497380095.8,286047001.7,N
1497380115.6,286047004.3,N
1497380135.5,286047004.0,N
1497380155.3,286047004.4,N
1497380175.1,286047004.3,N
1497380195.9,286047004.3,N
1497380215.7,286047001.3,N
1497380235.6,286047001.4,N
1497380255.4,286047001.3,N
1497380275.2,286047004.3,N
1497380295.1,286047003.6,N
1497380296.0,286047003.6,N
1497380315.8,286047004.0,N
1497380335.7,286047003.3,N
1497380355.5,286047004.4,N
1497380375.3,286047004.2,N
1497380395.2,286047004.0,N
